This is the latest recevied weather packets stored in our database for station/object PA3DZX-13. If no packets are shown the sender has not sent any weather packets the latest 10 day(s).
| Time | Temp. | Humidity | Pressure | Rain* | Wind** | Luminosity | Snow |
|---|---|---|---|---|---|---|---|
| 1777697535 | 10° C | 66% | 1019.1 hPa | 0 mm | - | - | - |
| 1777696635 | 8.89° C | 66% | 1019.1 hPa | 0 mm | - | - | - |
| 1777695735 | 10° C | 65% | 1019.2 hPa | 0 mm | - | - | - |
| 1777694835 | 10° C | 63% | 1019.4 hPa | 0 mm | - | - | - |
| 1777693935 | 10° C | 62% | 1019.5 hPa | 0 mm | - | - | - |
| 1777693035 | 10° C | 62% | 1019.5 hPa | 0 mm | - | - | - |
| 1777692134 | 10° C | 61% | 1019.5 hPa | 0 mm | - | - | - |
| 1777691234 | 10.56° C | 60% | 1019.7 hPa | 0 mm | - | - | - |
| 1777690334 | 10.56° C | 59% | 1019.7 hPa | 0 mm | - | - | - |
| 1777689434 | 10.56° C | 57% | 1019.8 hPa | 0 mm | - | - | - |
| 1777688533 | 10.56° C | 58% | 1019.9 hPa | 0 mm | - | - | - |
| 1777687633 | 10.56° C | 58% | 1020.1 hPa | 0 mm | - | - | - |
| 1777686732 | 10.56° C | 58% | 1020.1 hPa | 0 mm | - | - | - |
| 1777685832 | 11.67° C | 56% | 1020.4 hPa | 0 mm | - | - | - |
| 1777684930 | 11.67° C | 55% | 1020.5 hPa | 0 mm | - | - | - |
| 1777684031 | 11.67° C | 54% | 1020.6 hPa | 0 mm | - | - | - |
| 1777683131 | 11.67° C | 53% | 1020.8 hPa | 0 mm | - | - | - |
| 1777682231 | 12.78° C | 53% | 1020.9 hPa | 0 mm | - | - | - |
| 1777681329 | 12.78° C | 51% | 1020.9 hPa | 0 mm | - | - | - |
| 1777680430 | 12.78° C | 51% | 1021 hPa | 0 mm | - | - | - |
| 1777679529 | 10.56° C | 60% | 1021.2 hPa | 0 mm | - | - | - |
| 1777678628 | 10° C | 65% | 1021.3 hPa | 0 mm | - | - | - |
| 1777677727 | 10.56° C | 62% | 1021.2 hPa | 0 mm | - | - | - |
| 1777676827 | 10° C | 65% | 1021.4 hPa | 0 mm | - | - | - |
| 1777675927 | 8.89° C | 75% | 1021.5 hPa | 0 mm | - | - | - |
* Rain latest hour (hover to see other rain measurements)
** Current wind speed in m/s (hover to see current wind gust speed)